﻿_id,日時,平均風速(m/s),平均風向,最大瞬間風速(m/s),最大風速時風向,気温(℃),湿度(%),10分間移動積算雨量(mm),1時間移動積算雨量(mm),日雨量(mm),累計雨量(mm),日射(日積算)(MJ/m2),日照(日積算)(min),現地気圧(hPa),海面気圧(hPa)
1,2021-03-22T00:00:00,3.5,北北西,7.5,北北東,9.3,88.6,0,0,24.5,24.5,2.08,0,996.7,1010.8
2,2021-03-22T00:01:00,3.4,北北西,7.5,北北東,9.3,87.3,0,0,0,24.5,0,0,996.7,1010.8
3,2021-03-22T00:02:00,3.2,北北西,7.2,北西,9.2,86.5,0,0,0,24.5,0,0,996.7,1010.8
4,2021-03-22T00:03:00,3.2,北北西,7.2,北西,9.2,86,0,0,0,24.5,0,0,996.8,1010.9
5,2021-03-22T00:04:00,3.2,北北西,7.2,北西,9.2,85.9,0,0,0,24.5,0,0,996.7,1010.8
6,2021-03-22T00:05:00,3.2,北北西,7.2,北西,9.3,85.8,0,0,0,24.5,0,0,996.7,1010.8
7,2021-03-22T00:06:00,3.1,北北西,7.2,北西,9.2,85.6,0,0,0,24.5,0,0,996.7,1010.8
8,2021-03-22T00:07:00,3.2,北北西,7.2,北西,9.3,85.8,0,0,0,24.5,0,0,996.6,1010.7
9,2021-03-22T00:08:00,3.2,北北西,7.2,北西,9.2,85.2,0,0,0,24.5,0,0,996.6,1010.7
10,2021-03-22T00:09:00,3.2,北北西,6.3,北西,9.1,84.7,0,0,0,24.5,0,0,996.7,1010.8
11,2021-03-22T00:10:00,3.1,北北西,5.8,北北東,9.1,84.8,0,0,0,24.5,0,0,996.7,1010.8
12,2021-03-22T00:11:00,3,北北西,5.8,北北東,9.1,84.8,0,0,0,24.5,0,0,996.7,1010.8
13,2021-03-22T00:12:00,3,北北西,5.8,北北東,9.1,84.7,0,0,0,24.5,0,0,996.7,1010.8
14,2021-03-22T00:13:00,2.9,北北西,5.8,北北東,9,84.6,0,0,0,24.5,0,0,996.7,1010.8
15,2021-03-22T00:14:00,2.8,北北西,5.8,北北東,9.1,84.9,0,0,0,24.5,0,0,996.7,1010.8
16,2021-03-22T00:15:00,2.8,北北西,5.8,北北東,9,84.8,0,0,0,24.5,0,0,996.7,1010.8
17,2021-03-22T00:16:00,2.9,北北西,5.8,北北東,9,84.8,0,0,0,24.5,0,0,996.7,1010.8
18,2021-03-22T00:17:00,2.8,北北西,5.8,北北東,8.9,84.4,0,0,0,24.5,0,0,996.7,1010.8
19,2021-03-22T00:18:00,2.6,北北西,5.8,北北東,8.9,84.5,0,0,0,24.5,0,0,996.7,1010.8
20,2021-03-22T00:19:00,2.6,北北西,5.8,北北東,8.9,84.8,0,0,0,24.5,0,0,996.7,1010.8
21,2021-03-22T00:20:00,2.7,北北西,5.2,北北西,8.8,85.1,0,0,0,24.5,0,0,996.8,1010.9
22,2021-03-22T00:21:00,2.7,北北西,5.2,北北西,8.8,85.5,0,0,0,24.5,0,0,996.8,1010.9
23,2021-03-22T00:22:00,2.7,北北西,5.5,北,8.9,85.9,0,0,0,24.5,0,0,996.9,1011
24,2021-03-22T00:23:00,2.8,北北西,5.6,北,8.9,85.8,0,0,0,24.5,0,0,996.9,1011
25,2021-03-22T00:24:00,2.9,北北西,5.6,北,9,85.6,0,0,0,24.5,0,0,997,1011.1
26,2021-03-22T00:25:00,2.9,北北西,5.6,北,8.9,85.3,0,0,0,24.5,0,0,996.9,1011
27,2021-03-22T00:26:00,2.8,北北西,5.6,北,9,85.2,0,0,0,24.5,0,0,996.9,1011
28,2021-03-22T00:27:00,2.9,北北西,5.8,北北西,8.9,85.1,0,0,0,24.5,0,0,996.9,1011
29,2021-03-22T00:28:00,3,北北西,5.8,北北西,8.8,85,0,0,0,24.5,0,0,996.9,1011
30,2021-03-22T00:29:00,3,北北西,5.8,北北西,8.9,85,0,0,0,24.5,0,0,997,1011.1
31,2021-03-22T00:30:00,2.9,北北西,5.8,北北西,8.9,85.1,0,0,0,24.5,0,0,997.1,1011.2
32,2021-03-22T00:31:00,2.8,北北西,5.8,北北西,8.9,85,0,0,0,24.5,0,0,997,1011.1
33,2021-03-22T00:32:00,2.9,北北西,6.6,北,8.8,84.8,0,0,0,24.5,0,0,997,1011.1
34,2021-03-22T00:33:00,3,北北西,6.6,北,8.9,84.8,0,0,0,24.5,0,0,997,1011.1
35,2021-03-22T00:34:00,3,北北西,6.6,北,8.9,84.2,0,0,0,24.5,0,0,997,1011.1
36,2021-03-22T00:35:00,3.1,北北西,6.6,北,8.9,83.8,0,0,0,24.5,0,0,997.1,1011.2
37,2021-03-22T00:36:00,3.1,北北西,6.6,北,8.9,83.8,0,0,0,24.5,0,0,997.1,1011.2
38,2021-03-22T00:37:00,3,北北西,6.6,北,8.9,83.7,0,0,0,24.5,0,0,997.1,1011.2
39,2021-03-22T00:38:00,3,北北西,6.6,北,8.9,83.7,0,0,0,24.5,0,0,997.1,1011.2
40,2021-03-22T00:39:00,3.1,北北西,6.6,北,8.9,83.5,0,0,0,24.5,0,0,997,1011.1
41,2021-03-22T00:40:00,3.1,北北西,6.6,北,8.9,83.3,0,0,0,24.5,0,0,997.1,1011.2
42,2021-03-22T00:41:00,3.1,北北西,6.6,北,8.9,83.2,0,0,0,24.5,0,0,997.1,1011.2
43,2021-03-22T00:42:00,3,北北西,6.5,北北東,9,83.2,0,0,0,24.5,0,0,997.1,1011.2
44,2021-03-22T00:43:00,3,北北西,6.5,北北東,8.9,83,0,0,0,24.5,0,0,997.1,1011.2
45,2021-03-22T00:44:00,3,北北西,6.8,北北東,8.9,82.6,0,0,0,24.5,0,0,997.1,1011.2
46,2021-03-22T00:45:00,2.9,北北西,6.8,北北東,8.9,82.8,0,0,0,24.5,0,0,997.2,1011.3
47,2021-03-22T00:46:00,2.9,北,6.8,北北東,8.9,82.8,0,0,0,24.5,0,0,997.2,1011.3
48,2021-03-22T00:47:00,3,北,6.8,北北東,8.9,82.6,0,0,0,24.5,0,0,997.2,1011.3
49,2021-03-22T00:48:00,3.1,北,6.8,北北東,9.1,83.1,0,0,0,24.5,0,0,997.3,1011.4
50,2021-03-22T00:49:00,3.3,北,8.1,北,9.1,82.8,0,0,0,24.5,0,0,997.2,1011.3
51,2021-03-22T00:50:00,3.6,北,8.3,北北東,9.1,82.5,0,0,0,24.5,0,0,997.3,1011.4
52,2021-03-22T00:51:00,3.8,北,8.3,北北東,9,81.8,0,0,0,24.5,0,0,997.3,1011.4
53,2021-03-22T00:52:00,3.8,北,8.3,北北東,8.9,81.1,0,0,0,24.5,0,0,997.3,1011.4
54,2021-03-22T00:53:00,3.8,北,8.3,北北東,8.9,80.8,0,0,0,24.5,0,0,997.3,1011.4
55,2021-03-22T00:54:00,3.9,北,8.3,北北東,8.9,80.9,0,0,0,24.5,0,0,997.3,1011.4
56,2021-03-22T00:55:00,4,北,8.3,北北東,8.9,81.5,0,0,0,24.5,0,0,997.3,1011.4
57,2021-03-22T00:56:00,4,北,8.3,北北東,9,82.3,0,0,0,24.5,0,0,997.4,1011.5
58,2021-03-22T00:57:00,3.9,北,8.3,北北東,8.8,81.8,0,0,0,24.5,0,0,997.4,1011.5
59,2021-03-22T00:58:00,3.8,北,8.3,北北東,8.9,81.8,0,0,0,24.5,0,0,997.4,1011.5
60,2021-03-22T00:59:00,3.4,北,8.3,北北東,8.8,81.8,0,0,0,24.5,0,0,997.4,1011.5
61,2021-03-22T01:00:00,3,北,7.1,北,8.8,80.8,0,0,0,24.5,0,0,997.4,1011.5
62,2021-03-22T01:01:00,2.8,北,6.5,北北東,8.8,80.7,0,0,0,24.5,0,0,997.4,1011.5
63,2021-03-22T01:02:00,3,北,6.5,北北東,8.8,80.5,0,0,0,24.5,0,0,997.4,1011.5
64,2021-03-22T01:03:00,2.8,北,6.3,北北東,8.8,80.9,0,0,0,24.5,0,0,997.4,1011.5
65,2021-03-22T01:04:00,2.6,北,6.2,北,8.8,80.7,0,0,0,24.5,0,0,997.5,1011.6
66,2021-03-22T01:05:00,2.4,北,6.2,北,8.8,80.7,0,0,0,24.5,0,0,997.5,1011.6
67,2021-03-22T01:06:00,2.7,北,6.2,北,8.7,80.7,0,0,0,24.5,0,0,997.5,1011.6
68,2021-03-22T01:07:00,2.7,北,6.2,北,9,81.7,0,0,0,24.5,0,0,997.4,1011.5
69,2021-03-22T01:08:00,2.7,北,5.6,北北東,8.8,81.2,0,0,0,24.5,0,0,997.4,1011.5
70,2021-03-22T01:09:00,2.8,北,5.6,北北東,8.9,81,0,0,0,24.5,0,0,997.4,1011.5
71,2021-03-22T01:10:00,2.9,北,5.6,北北東,8.9,81.4,0,0,0,24.5,0,0,997.5,1011.6
72,2021-03-22T01:11:00,2.9,北,5.6,北北東,9,81.1,0,0,0,24.5,0,0,997.4,1011.5
73,2021-03-22T01:12:00,2.8,北北東,5.6,北北東,8.9,80.6,0,0,0,24.5,0,0,997.5,1011.6
74,2021-03-22T01:13:00,2.9,北北東,5.6,北北東,9,80.7,0,0,0,24.5,0,0,997.5,1011.6
75,2021-03-22T01:14:00,2.9,北北東,5.6,北北東,8.8,80.2,0,0,0,24.5,0,0,997.6,1011.7
76,2021-03-22T01:15:00,2.7,北北東,5.6,北北東,8.8,80.1,0,0,0,24.5,0,0,997.6,1011.7
77,2021-03-22T01:16:00,2.5,北北東,5.1,北北東,8.7,80.5,0,0,0,24.5,0,0,997.6,1011.7
78,2021-03-22T01:17:00,2.4,北北東,5.1,北北東,8.7,80.7,0,0,0,24.5,0,0,997.6,1011.7
79,2021-03-22T01:18:00,2.3,北北東,5.1,北北東,8.8,81.1,0,0,0,24.5,0,0,997.6,1011.7
80,2021-03-22T01:19:00,2.1,北北東,5,北北東,8.7,80.9,0,0,0,24.5,0,0,997.7,1011.8
81,2021-03-22T01:20:00,2.1,北北東,5,北北東,8.8,80.7,0,0,0,24.5,0,0,997.7,1011.8
82,2021-03-22T01:21:00,2.1,北北東,5,北北東,8.8,81.1,0,0,0,24.5,0,0,997.7,1011.8
83,2021-03-22T01:22:00,2.1,北北東,4.5,北,8.8,81.2,0,0,0,24.5,0,0,997.7,1011.8
84,2021-03-22T01:23:00,2.1,北北東,4.1,北,8.9,81,0,0,0,24.5,0,0,997.8,1011.9
85,2021-03-22T01:24:00,2.3,北北東,4.5,北北東,9,80.8,0,0,0,24.5,0,0,997.8,1011.9
86,2021-03-22T01:25:00,2.4,北北東,4.5,北北東,8.8,79.9,0,0,0,24.5,0,0,997.8,1011.9
87,2021-03-22T01:26:00,2.5,北北東,4.5,北北東,8.9,79.9,0,0,0,24.5,0,0,997.8,1011.9
88,2021-03-22T01:27:00,2.7,北北東,4.5,北北東,8.8,79.6,0,0,0,24.5,0,0,997.8,1011.9
89,2021-03-22T01:28:00,2.8,北北東,4.5,北北東,8.8,79.2,0,0,0,24.5,0,0,997.8,1011.9
90,2021-03-22T01:29:00,2.9,北北東,4.5,北北東,8.8,79.6,0,0,0,24.5,0,0,997.8,1011.9
91,2021-03-22T01:30:00,2.9,北北東,4.5,北北東,8.9,79.9,0,0,0,24.5,0,0,997.8,1011.9
92,2021-03-22T01:31:00,3,北北東,4.5,北北東,8.7,79.8,0,0,0,24.5,0,0,997.8,1011.9
93,2021-03-22T01:32:00,3,北北東,4.5,北北東,8.8,79.9,0,0,0,24.5,0,0,997.8,1011.9
94,2021-03-22T01:33:00,3,北北東,4.5,北北東,8.8,80,0,0,0,24.5,0,0,997.9,1012
95,2021-03-22T01:34:00,2.9,北北東,4.5,北北東,8.8,79.7,0,0,0,24.5,0,0,997.9,1012
96,2021-03-22T01:35:00,2.9,北北東,4.5,北北東,8.7,79.8,0,0,0,24.5,0,0,997.9,1012
97,2021-03-22T01:36:00,3,北北東,4.5,北北東,8.9,80.3,0,0,0,24.5,0,0,998,1012.1
98,2021-03-22T01:37:00,3,北北東,4.5,北北東,8.8,80.4,0,0,0,24.5,0,0,998,1012.1
99,2021-03-22T01:38:00,2.9,北北東,4.5,北北東,8.8,79.7,0,0,0,24.5,0,0,998,1012.1
100,2021-03-22T01:39:00,2.8,北北東,4.5,北北東,8.9,80,0,0,0,24.5,0,0,998,1012.1
101,2021-03-22T01:40:00,2.7,北北東,4.5,北北東,8.9,80.3,0,0,0,24.5,0,0,998,1012.1
102,2021-03-22T01:41:00,2.7,北北東,4.5,北北東,8.9,80.4,0,0,0,24.5,0,0,998,1012.1
103,2021-03-22T01:42:00,2.7,北北東,4.4,北北東,8.9,80.3,0,0,0,24.5,0,0,998,1012.1
104,2021-03-22T01:43:00,2.7,北北東,4.5,北北東,8.8,79.8,0,0,0,24.5,0,0,998,1012.1
105,2021-03-22T01:44:00,2.7,北北東,4.5,北北東,8.7,79.4,0,0,0,24.5,0,0,998,1012.1
106,2021-03-22T01:45:00,2.6,北北東,4.5,北北東,8.7,79.1,0,0,0,24.5,0,0,998,1012.1
107,2021-03-22T01:46:00,2.5,北北東,4.5,北北東,8.8,79.4,0,0,0,24.5,0,0,998,1012.1
108,2021-03-22T01:47:00,2.4,北北東,4.5,北北東,8.8,79.8,0,0,0,24.5,0,0,998,1012.1
109,2021-03-22T01:48:00,2.3,北北東,4.5,北北東,8.7,79,0,0,0,24.5,0,0,997.9,1012
110,2021-03-22T01:49:00,2.2,北北東,4.5,北北東,8.6,78.7,0,0,0,24.5,0,0,997.9,1012
111,2021-03-22T01:50:00,2.2,北北東,4.5,北北東,8.8,79.2,0,0,0,24.5,0,0,997.9,1012
112,2021-03-22T01:51:00,2.1,北北東,4.5,北北東,8.7,79.6,0,0,0,24.5,0,0,997.9,1012
113,2021-03-22T01:52:00,1.9,北北東,4.5,北北東,8.7,79.5,0,0,0,24.5,0,0,997.9,1012
114,2021-03-22T01:53:00,1.8,北北東,3.5,北北東,8.6,79.9,0,0,0,24.5,0,0,998,1012.1
115,2021-03-22T01:54:00,1.8,北北東,3.5,北北東,8.6,80,0,0,0,24.5,0,0,998,1012.1
116,2021-03-22T01:55:00,1.7,北北東,2.7,北,8.6,80.1,0,0,0,24.5,0,0,998,1012.1
117,2021-03-22T01:56:00,1.7,北北東,3.3,北北東,8.7,80.6,0,0,0,24.5,0,0,998.1,1012.2
118,2021-03-22T01:57:00,1.8,北北東,3.6,北北東,8.8,80.4,0,0,0,24.5,0,0,998.1,1012.2
119,2021-03-22T01:58:00,1.9,北北東,3.6,北北東,8.7,80.2,0,0,0,24.5,0,0,998.1,1012.2
120,2021-03-22T01:59:00,1.9,北北東,3.6,北北東,8.7,80.4,0,0,0,24.5,0,0,998.1,1012.2
121,2021-03-22T02:00:00,2,北北東,3.6,北北東,8.6,80.6,0,0,0,24.5,0,0,998.1,1012.2
122,2021-03-22T02:01:00,2.2,北北東,3.9,北東,8.8,81.1,0,0,0,24.5,0,0,998.1,1012.2
123,2021-03-22T02:02:00,2.3,北北東,3.9,北東,8.7,81.5,0,0,0,24.5,0,0,998.1,1012.2
124,2021-03-22T02:03:00,2.4,北東,3.9,北東,8.7,81.2,0,0,0,24.5,0,0,998.1,1012.2
125,2021-03-22T02:04:00,2.5,北東,3.9,北東,8.5,80.5,0,0,0,24.5,0,0,998.1,1012.2
126,2021-03-22T02:05:00,2.6,北東,4.2,北北東,8.5,80.5,0,0,0,24.5,0,0,998.1,1012.2
127,2021-03-22T02:06:00,2.7,北東,4.2,北北東,8.7,81.6,0,0,0,24.5,0,0,998.1,1012.2
128,2021-03-22T02:07:00,2.9,北東,4.9,北北東,8.7,81.8,0,0,0,24.5,0,0,998,1012.1
129,2021-03-22T02:08:00,3.1,北東,5.8,北北東,8.7,81.2,0,0,0,24.5,0,0,998.1,1012.2
130,2021-03-22T02:09:00,3.2,北北東,6.5,北北東,8.5,80.8,0,0,0,24.5,0,0,998.1,1012.2
131,2021-03-22T02:10:00,3.3,北北東,6.5,北北東,8.6,80.3,0,0,0,24.5,0,0,998.1,1012.2
132,2021-03-22T02:11:00,3.4,北北東,6.5,北北東,8.5,80.3,0,0,0,24.5,0,0,998.1,1012.2
133,2021-03-22T02:12:00,3.4,北北東,6.5,北北東,8.5,80.5,0,0,0,24.5,0,0,998.1,1012.2
134,2021-03-22T02:13:00,3.5,北北東,6.5,北北東,8.6,81.7,0,0,0,24.5,0,0,998.1,1012.2
135,2021-03-22T02:14:00,3.7,北北東,6.5,北北東,8.5,81.9,0,0,0,24.5,0,0,998.1,1012.2
136,2021-03-22T02:15:00,3.8,北北東,6.7,北北東,8.4,82,0,0,0,24.5,0,0,998.1,1012.2
137,2021-03-22T02:16:00,4.1,北北東,7.9,北北東,8.3,81.6,0,0,0,24.5,0,0,998.1,1012.2
138,2021-03-22T02:17:00,4.2,北北東,7.9,北北東,8.4,81.5,0,0,0,24.5,0,0,998,1012.1
139,2021-03-22T02:18:00,4.4,北北東,7.9,北北東,8.4,81,0,0,0,24.5,0,0,998,1012.1
140,2021-03-22T02:19:00,4.3,北北東,7.9,北北東,8.4,80,0,0,0,24.5,0,0,998,1012.1
141,2021-03-22T02:20:00,4.3,北北東,7.9,北北東,8.3,79.1,0,0,0,24.5,0,0,998,1012.1
142,2021-03-22T02:21:00,4.4,北北東,7.9,北北東,8.2,79.3,0,0,0,24.5,0,0,998,1012.1
143,2021-03-22T02:22:00,4.4,北北東,7.9,北北東,8.2,80.1,0,0,0,24.5,0,0,998,1012.1
144,2021-03-22T02:23:00,4.5,北北東,7.9,北北東,8,80.1,0,0,0,24.5,0,0,998,1012.1
145,2021-03-22T02:24:00,4.3,北北東,7.9,北北東,8,80.9,0,0,0,24.5,0,0,998,1012.1
146,2021-03-22T02:25:00,4.1,北,7.9,北北東,8,80.5,0,0,0,24.5,0,0,998,1012.1
147,2021-03-22T02:26:00,3.8,北,7.9,北北東,7.9,80.4,0,0,0,24.5,0,0,997.9,1012
148,2021-03-22T02:27:00,3.5,北,7.9,北北東,7.9,80.7,0,0,0,24.5,0,0,997.9,1012
149,2021-03-22T02:28:00,3.2,北,7.5,北,7.9,80.6,0,0,0,24.5,0,0,997.9,1012
150,2021-03-22T02:29:00,3.1,北,7.5,北,7.9,80.7,0,0,0,24.5,0,0,998,1012.1
151,2021-03-22T02:30:00,3,北,7.5,北,7.8,80.8,0,0,0,24.5,0,0,998,1012.1
152,2021-03-22T02:31:00,2.9,北,7.5,北,7.8,80.8,0,0,0,24.5,0,0,998.1,1012.2
153,2021-03-22T02:32:00,2.8,北北西,7.5,北,7.8,80.9,0,0,0,24.5,0,0,998,1012.1
154,2021-03-22T02:33:00,2.6,北北西,6.5,北北東,7.8,81.2,0,0,0,24.5,0,0,998,1012.1
155,2021-03-22T02:34:00,2.5,北北西,6.3,北北東,7.8,81.2,0,0,0,24.5,0,0,998,1012.1
156,2021-03-22T02:35:00,2.5,北北西,6.3,北北東,7.9,81.5,0,0,0,24.5,0,0,998,1012.1
157,2021-03-22T02:36:00,2.4,北北西,6.3,北北東,7.9,81.1,0,0,0,24.5,0,0,998,1012.1
158,2021-03-22T02:37:00,2.3,北北西,5.3,北北西,8,80.7,0,0,0,24.5,0,0,998,1012.1
159,2021-03-22T02:38:00,2.2,北北西,5.3,北北西,8,80.5,0,0,0,24.5,0,0,998,1012.1
160,2021-03-22T02:39:00,2.2,北,5.3,北北西,7.9,80.4,0,0,0,24.5,0,0,998,1012.1
161,2021-03-22T02:40:00,2.1,北,5.3,北北西,7.9,80.1,0,0,0,24.5,0,0,998.1,1012.2
162,2021-03-22T02:41:00,2,北,4.8,北,7.9,80.5,0,0,0,24.5,0,0,998,1012.1
163,2021-03-22T02:42:00,1.9,北,4.4,北北東,8,80.3,0,0,0,24.5,0,0,998.1,1012.2
164,2021-03-22T02:43:00,1.8,北,4.4,北北東,7.9,80.5,0,0,0,24.5,0,0,998.1,1012.2
165,2021-03-22T02:44:00,1.8,北,4.4,北北東,7.9,80.6,0,0,0,24.5,0,0,998.1,1012.2
166,2021-03-22T02:45:00,1.7,北,4,北北東,7.8,80.5,0,0,0,24.5,0,0,998,1012.1
167,2021-03-22T02:46:00,1.7,北,4,北北東,7.8,80.9,0,0,0,24.5,0,0,998,1012.1
168,2021-03-22T02:47:00,1.9,北,4,北北東,7.7,81,0,0,0,24.5,0,0,998.1,1012.3
169,2021-03-22T02:48:00,1.9,北,4,北北東,7.7,81.3,0,0,0,24.5,0,0,998.1,1012.3
170,2021-03-22T02:49:00,1.9,北,4,北北東,7.7,81.6,0,0,0,24.5,0,0,998,1012.2
171,2021-03-22T02:50:00,1.8,北北西,4,北北東,7.7,82.1,0,0,0,24.5,0,0,998,1012.2
172,2021-03-22T02:51:00,1.8,北北西,4,北北東,7.8,82.2,0,0,0,24.5,0,0,998,1012.1
173,2021-03-22T02:52:00,1.7,北北西,4,北北東,7.8,82,0,0,0,24.5,0,0,998,1012.1
174,2021-03-22T02:53:00,1.7,北北西,3.9,北西,7.8,82.2,0,0,0,24.5,0,0,998.1,1012.2
175,2021-03-22T02:54:00,1.6,北北西,3.9,北西,7.8,82.1,0,0,0,24.5,0,0,998,1012.1
176,2021-03-22T02:55:00,1.5,北北西,3.9,北西,7.8,82.1,0,0,0,24.5,0,0,998.1,1012.2
177,2021-03-22T02:56:00,1.5,北北西,3.9,北西,7.8,82.5,0,0,0,24.5,0,0,998.2,1012.3
178,2021-03-22T02:57:00,1.4,北北西,3.7,北,7.8,82.6,0,0,0,24.5,0,0,998.2,1012.3
179,2021-03-22T02:58:00,1.3,北北西,3.7,北,7.8,82.5,0,0,0,24.5,0,0,998.2,1012.3
180,2021-03-22T02:59:00,1.5,北,4,北,7.8,82.3,0,0,0,24.5,0,0,998.2,1012.3
181,2021-03-22T03:00:00,1.6,北,4.9,北北東,7.8,82.5,0,0,0,24.5,0,0,998.2,1012.3
182,2021-03-22T03:01:00,1.8,北,4.9,北北東,7.9,82.4,0,0,0,24.5,0,0,998.3,1012.4
183,2021-03-22T03:02:00,1.9,北,4.9,北北東,7.9,82.3,0,0,0,24.5,0,0,998.3,1012.4
184,2021-03-22T03:03:00,1.9,北,4.9,北北東,7.9,81.9,0,0,0,24.5,0,0,998.3,1012.4
185,2021-03-22T03:04:00,2,北,4.9,北北東,7.8,81.5,0,0,0,24.5,0,0,998.3,1012.5
186,2021-03-22T03:05:00,2.1,北,4.9,北北東,7.8,81.5,0,0,0,24.5,0,0,998.3,1012.5
187,2021-03-22T03:06:00,2.2,北,4.9,北北東,7.7,81.5,0,0,0,24.5,0,0,998.3,1012.5
188,2021-03-22T03:07:00,2.1,北,4.9,北北東,7.6,81.5,0,0,0,24.5,0,0,998.4,1012.6
189,2021-03-22T03:08:00,2.1,北,4.9,北北東,7.6,81.8,0,0,0,24.5,0,0,998.4,1012.6
190,2021-03-22T03:09:00,2.1,北,4.9,北北東,7.7,82.3,0,0,0,24.5,0,0,998.4,1012.6
191,2021-03-22T03:10:00,2,北,4.4,北北東,7.7,82.5,0,0,0,24.5,0,0,998.5,1012.7
192,2021-03-22T03:11:00,1.8,北,4,北,7.8,82.7,0,0,0,24.5,0,0,998.5,1012.7
193,2021-03-22T03:12:00,1.7,北,3.4,北,7.8,82.4,0,0,0,24.5,0,0,998.5,1012.7
194,2021-03-22T03:13:00,1.7,北,3.4,北,7.7,82,0,0,0,24.5,0,0,998.5,1012.7
195,2021-03-22T03:14:00,1.6,北,3.4,北,7.8,82.2,0,0,0,24.5,0,0,998.6,1012.8
196,2021-03-22T03:15:00,1.6,北,3.4,北,7.7,82.2,0,0,0,24.5,0,0,998.6,1012.8
197,2021-03-22T03:16:00,1.5,北,3.4,北,7.7,82.2,0,0,0,24.5,0,0,998.6,1012.8
198,2021-03-22T03:17:00,1.5,北,3.4,北,7.7,82.2,0,0,0,24.5,0,0,998.6,1012.8
199,2021-03-22T03:18:00,1.5,北北西,3.4,北,7.7,82.4,0,0,0,24.5,0,0,998.6,1012.8
200,2021-03-22T03:19:00,1.5,北北西,3.7,北北東,7.7,82.6,0,0,0,24.5,0,0,998.6,1012.8
201,2021-03-22T03:20:00,1.5,北北西,3.7,北北東,7.7,82.7,0,0,0,24.5,0,0,998.7,1012.9
202,2021-03-22T03:21:00,1.5,北北西,3.7,北北東,7.7,82.8,0,0,0,24.5,0,0,998.7,1012.9
203,2021-03-22T03:22:00,1.5,北北西,3.7,北北東,7.7,82.7,0,0,0,24.5,0,0,998.7,1012.9
204,2021-03-22T03:23:00,1.6,北北西,3.7,北北東,7.7,82.5,0,0,0,24.5,0,0,998.7,1012.9
205,2021-03-22T03:24:00,1.7,北北西,3.8,北,7.7,82.3,0,0,0,24.5,0,0,998.7,1012.9
206,2021-03-22T03:25:00,1.8,北北西,3.8,北,7.7,82.1,0,0,0,24.5,0,0,998.8,1013
207,2021-03-22T03:26:00,2,北,6.6,北北東,7.6,81.7,0,0,0,24.5,0,0,998.8,1013
208,2021-03-22T03:27:00,2.1,北,6.6,北北東,7.7,81.8,0,0,0,24.5,0,0,998.8,1013
209,2021-03-22T03:28:00,2.2,北,6.6,北北東,7.7,82,0,0,0,24.5,0,0,998.8,1013
210,2021-03-22T03:29:00,2.2,北,6.8,北,7.6,81.4,0,0,0,24.5,0,0,998.9,1013.1
211,2021-03-22T03:30:00,2.3,北,6.8,北,7.6,81.1,0,0,0,24.5,0,0,998.9,1013.1
212,2021-03-22T03:31:00,2.4,北,6.8,北,7.5,80.7,0,0,0,24.5,0,0,998.9,1013.1
213,2021-03-22T03:32:00,2.6,北,6.8,北,7.5,80.5,0,0,0,24.5,0,0,998.9,1013.1
214,2021-03-22T03:33:00,2.7,北,6.8,北,7.6,81.2,0,0,0,24.5,0,0,998.9,1013.1
215,2021-03-22T03:34:00,2.9,北,6.8,北,7.6,81.7,0,0,0,24.5,0,0,998.9,1013.1
216,2021-03-22T03:35:00,3,北,6.8,北,7.5,81.7,0,0,0,24.5,0,0,998.9,1013.1
217,2021-03-22T03:36:00,3,北,6.8,北,7.6,81.6,0,0,0,24.5,0,0,998.9,1013.1
218,2021-03-22T03:37:00,3.1,北,6.8,北,7.5,82.1,0,0,0,24.5,0,0,999,1013.2
219,2021-03-22T03:38:00,3.3,北,6.8,北,7.6,81.9,0,0,0,24.5,0,0,999,1013.2
220,2021-03-22T03:39:00,3.4,北,6.5,北北東,7.7,82.7,0,0,0,24.5,0,0,999,1013.2
221,2021-03-22T03:40:00,3.4,北,6.5,北北東,7.6,82.6,0,0,0,24.5,0,0,999,1013.2
222,2021-03-22T03:41:00,3.6,北,6.5,北北東,7.6,82.8,0,0,0,24.5,0,0,999,1013.2
223,2021-03-22T03:42:00,3.6,北,6.5,北北東,7.7,82.9,0,0,0,24.5,0,0,999,1013.2
224,2021-03-22T03:43:00,3.7,北北東,6.5,北北東,7.6,83.2,0,0,0,24.5,0,0,999,1013.2
225,2021-03-22T03:44:00,3.7,北北東,6.5,北北東,7.6,82.8,0,0,0,24.5,0,0,999,1013.2
226,2021-03-22T03:45:00,3.7,北北東,6.5,北北東,7.5,82.7,0,0,0,24.5,0,0,998.9,1013.1
227,2021-03-22T03:46:00,3.6,北,6.2,北北東,7.4,82.1,0,0,0,24.5,0,0,999,1013.2
228,2021-03-22T03:47:00,3.5,北,6.2,北北東,7.3,82.3,0,0,0,24.5,0,0,999,1013.2
229,2021-03-22T03:48:00,3.3,北,6.2,北北東,7.3,82.6,0,0,0,24.5,0,0,999,1013.2
230,2021-03-22T03:49:00,3.1,北,6.2,北北東,7.4,83.2,0,0,0,24.5,0,0,999,1013.2
231,2021-03-22T03:50:00,3.2,北,6.2,北北東,7.4,83.8,0,0,0,24.5,0,0,999,1013.2
232,2021-03-22T03:51:00,3.1,北,6.1,北北東,7.5,84.2,0,0,0,24.5,0,0,999,1013.2
233,2021-03-22T03:52:00,3.1,北,6.1,北北東,7.4,83.5,0,0,0,24.5,0,0,999,1013.2
234,2021-03-22T03:53:00,3,北,5.9,北,7.5,83.6,0,0,0,24.5,0,0,999.1,1013.3
235,2021-03-22T03:54:00,2.9,北,5.9,北,7.3,83.5,0,0,0,24.5,0,0,999.1,1013.3
236,2021-03-22T03:55:00,2.9,北,5.8,北,7.3,82.9,0,0,0,24.5,0,0,999,1013.2
237,2021-03-22T03:56:00,2.9,北,5.8,北,7.2,82.9,0,0,0,24.5,0,0,999,1013.2
238,2021-03-22T03:57:00,2.9,北,5.8,北,7.2,82.8,0,0,0,24.5,0,0,999,1013.2
239,2021-03-22T03:58:00,2.9,北,5.8,北,7.2,83,0,0,0,24.5,0,0,999,1013.2
240,2021-03-22T03:59:00,3.1,北,6.6,北,7.2,82.6,0,0,0,24.5,0,0,999.1,1013.3
241,2021-03-22T04:00:00,3,北,6.6,北,7.2,82.6,0,0,0,24.5,0,0,999.1,1013.3
242,2021-03-22T04:01:00,2.9,北,6.6,北,7.2,82.7,0,0,0,24.5,0,0,999.1,1013.3
243,2021-03-22T04:02:00,2.8,北,6.6,北,7.2,82.6,0,0,0,24.5,0,0,999.1,1013.3
244,2021-03-22T04:03:00,2.6,北,6.6,北,7.2,82.1,0,0,0,24.5,0,0,999.1,1013.3
245,2021-03-22T04:04:00,2.6,北,6.6,北,7.2,81.9,0,0,0,24.5,0,0,999.1,1013.3
246,2021-03-22T04:05:00,2.5,北,6.6,北,7.3,82.1,0,0,0,24.5,0,0,999.1,1013.3
247,2021-03-22T04:06:00,2.5,北北西,6.6,北,7.2,81.7,0,0,0,24.5,0,0,999.1,1013.3
248,2021-03-22T04:07:00,2.5,北北西,6.6,北,7.1,81.5,0,0,0,24.5,0,0,999.1,1013.3
249,2021-03-22T04:08:00,2.4,北北西,6.6,北,7.1,81.4,0,0,0,24.5,0,0,999.1,1013.3
250,2021-03-22T04:09:00,2.3,北北西,5.5,北西,7.2,81.5,0,0,0,24.5,0,0,999.1,1013.3
251,2021-03-22T04:10:00,2.3,北北西,5.5,北西,7.2,81.8,0,0,0,24.5,0,0,999.1,1013.3
252,2021-03-22T04:11:00,2.4,北,5.5,北西,7.2,81.8,0,0,0,24.5,0,0,999.1,1013.3
253,2021-03-22T04:12:00,2.5,北,5.6,北,7.5,82.6,0,0,0,24.5,0,0,999.1,1013.3
254,2021-03-22T04:13:00,2.5,北,5.6,北,7.4,82.5,0,0,0,24.5,0,0,999.1,1013.3
255,2021-03-22T04:14:00,2.5,北,5.6,北,7.2,81.1,0,0,0,24.5,0,0,999.1,1013.3
256,2021-03-22T04:15:00,2.5,北,5.6,北,7.2,80.4,0,0,0,24.5,0,0,999.1,1013.3
257,2021-03-22T04:16:00,2.5,北,5.6,北,7.4,80.9,0,0,0,24.5,0,0,999,1013.2
258,2021-03-22T04:17:00,2.7,北,5.6,北,7.4,81.3,0,0,0,24.5,0,0,999,1013.2
259,2021-03-22T04:18:00,2.7,北,5.6,北,7.5,80.9,0,0,0,24.5,0,0,999,1013.2
260,2021-03-22T04:19:00,2.7,北,5.6,北,7.3,80.4,0,0,0,24.5,0,0,999,1013.2
261,2021-03-22T04:20:00,2.7,北,5.6,北,7.3,80.5,0,0,0,24.5,0,0,999.1,1013.3
262,2021-03-22T04:21:00,2.5,北,5.6,北,7.2,80.5,0,0,0,24.5,0,0,999.1,1013.3
263,2021-03-22T04:22:00,2.5,北北東,5.3,北,7.2,80.5,0,0,0,24.5,0,0,999.1,1013.3
264,2021-03-22T04:23:00,2.5,北北東,4.7,北北東,7.2,81.1,0,0,0,24.5,0,0,999.1,1013.3
265,2021-03-22T04:24:00,2.7,北北東,4.7,北北東,7.1,81.2,0,0,0,24.5,0,0,999.1,1013.3
266,2021-03-22T04:25:00,2.8,北北東,4.7,北北東,7.2,81.6,0,0,0,24.5,0,0,999.1,1013.3
267,2021-03-22T04:26:00,2.8,北北東,4.7,北北東,7.1,81.7,0,0,0,24.5,0,0,999.1,1013.3
268,2021-03-22T04:27:00,2.8,北北東,4.5,北北東,7.1,81.9,0,0,0,24.5,0,0,999.1,1013.3
269,2021-03-22T04:28:00,2.9,北北東,4.5,北北東,7.3,82.1,0,0,0,24.5,0,0,999.1,1013.3
270,2021-03-22T04:29:00,2.9,北北東,4.5,北北東,7.1,81.5,0,0,0,24.5,0,0,999.1,1013.3
271,2021-03-22T04:30:00,2.9,北北東,4.5,北北東,7,80.6,0,0,0,24.5,0,0,999.1,1013.3
272,2021-03-22T04:31:00,2.9,北北東,4.5,北北東,7.3,81.7,0,0,0,24.5,0,0,999.1,1013.3
273,2021-03-22T04:32:00,2.9,北北東,4.3,北東,7.3,81.4,0,0,0,24.5,0,0,999.1,1013.3
274,2021-03-22T04:33:00,2.8,北北東,4.3,北東,7.4,81.4,0,0,0,24.5,0,0,999.1,1013.3
275,2021-03-22T04:34:00,2.7,北北東,4.3,北東,7.2,81.2,0,0,0,24.5,0,0,999.1,1013.3
276,2021-03-22T04:35:00,2.7,北北東,4.3,北東,7,80.7,0,0,0,24.5,0,0,999.1,1013.3
277,2021-03-22T04:36:00,2.7,北北東,4.1,北北東,6.9,80.5,0,0,0,24.5,0,0,999.1,1013.3
278,2021-03-22T04:37:00,2.6,北北東,4.1,北北東,6.9,81.1,0,0,0,24.5,0,0,999.1,1013.3
279,2021-03-22T04:38:00,2.5,北北東,3.7,北北東,6.9,81.9,0,0,0,24.5,0,0,999.2,1013.4
280,2021-03-22T04:39:00,2.4,北北東,3.7,北北東,6.9,82,0,0,0,24.5,0,0,999.1,1013.3
281,2021-03-22T04:40:00,2.3,北北東,3.7,北北東,6.9,82.6,0,0,0,24.5,0,0,999.1,1013.3
282,2021-03-22T04:41:00,2.3,北北東,3.7,北北東,6.8,82.6,0,0,0,24.5,0,0,999.1,1013.3
283,2021-03-22T04:42:00,2.2,北北東,3.7,北北東,6.8,82.8,0,0,0,24.5,0,0,999.1,1013.3
284,2021-03-22T04:43:00,2.1,北北東,3.7,北北東,6.8,83.3,0,0,0,24.5,0,0,999,1013.2
285,2021-03-22T04:44:00,1.9,北北東,3.5,北北東,6.8,83.5,0,0,0,24.5,0,0,999,1013.2
286,2021-03-22T04:45:00,1.8,北北東,3.5,北北東,6.9,83.9,0,0,0,24.5,0,0,999,1013.2
287,2021-03-22T04:46:00,1.7,北北東,3,北北東,6.7,83.3,0,0,0,24.5,0,0,999,1013.2
288,2021-03-22T04:47:00,1.6,北北東,2.6,北北東,6.8,83.1,0,0,0,24.5,0,0,999.1,1013.3
289,2021-03-22T04:48:00,1.4,北北東,2.6,北北東,6.7,83,0,0,0,24.5,0,0,999.1,1013.3
290,2021-03-22T04:49:00,1.3,北北東,2.6,北北東,6.9,83.5,0,0,0,24.5,0,0,999.1,1013.3
291,2021-03-22T04:50:00,1.2,北北東,2.2,北,6.8,83.5,0,0,0,24.5,0,0,999.1,1013.3
292,2021-03-22T04:51:00,1.1,北北東,2.1,北北東,6.8,83.6,0,0,0,24.5,0,0,999.2,1013.4
293,2021-03-22T04:52:00,1,北北東,2,北東,6.9,83.5,0,0,0,24.5,0,0,999.2,1013.4
294,2021-03-22T04:53:00,0.9,北,2,北東,6.8,82.8,0,0,0,24.5,0,0,999.1,1013.3
295,2021-03-22T04:54:00,0.9,北,1.9,北東,6.8,82.8,0,0,0,24.5,0,0,999.2,1013.4
296,2021-03-22T04:55:00,0.8,北,1.9,北東,6.7,83,0,0,0,24.5,0,0,999.2,1013.4
297,2021-03-22T04:56:00,0.7,北北西,1.8,北,6.7,83.2,0,0,0,24.5,0,0,999.2,1013.4
298,2021-03-22T04:57:00,0.6,北北西,1.8,北,6.7,83.4,0,0,0,24.5,0,0,999.2,1013.4
299,2021-03-22T04:58:00,0.6,北北西,1.8,北,6.8,83.9,0,0,0,24.5,0,0,999.3,1013.5
300,2021-03-22T04:59:00,0.6,北北西,1.8,北,6.7,84.3,0,0,0,24.5,0,0,999.2,1013.4
301,2021-03-22T05:00:00,0.7,北北西,1.8,北,6.8,84.2,0,0,0,24.5,0,0,999.3,1013.5
302,2021-03-22T05:01:00,0.6,北北西,1.6,北,6.8,84.4,0,0,0,24.5,0,0,999.3,1013.5
303,2021-03-22T05:02:00,0.6,北北西,1.6,北,6.8,84.5,0,0,0,24.5,0,0,999.3,1013.5
304,2021-03-22T05:03:00,0.6,北北西,1.6,北,6.8,84.5,0,0,0,24.5,0,0,999.3,1013.5
305,2021-03-22T05:04:00,0.6,北,1.6,北,6.6,83.8,0,0,0,24.5,0,0,999.3,1013.5
306,2021-03-22T05:05:00,0.5,北,1.6,北,6.7,83.9,0,0,0,24.5,0,0,999.3,1013.5
307,2021-03-22T05:06:00,0.5,北,1.6,北,6.7,84.4,0,0,0,24.5,0,0,999.3,1013.5
308,2021-03-22T05:07:00,0.4,北北東,1.6,北,6.6,83.9,0,0,0,24.5,0,0,999.2,1013.4
309,2021-03-22T05:08:00,0.4,北北東,1.6,北,6.5,83.7,0,0,0,24.5,0,0,999.2,1013.4
310,2021-03-22T05:09:00,0.5,北東,1.8,東北東,6.4,83.7,0,0,0,24.5,0,0,999.1,1013.3
311,2021-03-22T05:10:00,0.5,北東,1.8,東北東,6.4,83.7,0,0,0,24.5,0,0,999.2,1013.4
312,2021-03-22T05:11:00,0.5,北東,1.8,東北東,6.4,83.9,0,0,0,24.5,0,0,999.3,1013.5
313,2021-03-22T05:12:00,0.6,東北東,1.8,東北東,6.5,84.6,0,0,0,24.5,0,0,999.3,1013.5
314,2021-03-22T05:13:00,0.6,東北東,1.8,東北東,6.5,84.4,0,0,0,24.5,0,0,999.4,1013.6
315,2021-03-22T05:14:00,0.7,東北東,1.8,東北東,6.6,85.1,0,0,0,24.5,0,0,999.4,1013.6
316,2021-03-22T05:15:00,0.7,東北東,1.8,東北東,6.6,84.5,0,0,0,24.5,0,0,999.5,1013.7
317,2021-03-22T05:16:00,0.8,東北東,1.8,東北東,6.6,84.4,0,0,0,24.5,0,0,999.5,1013.7
318,2021-03-22T05:17:00,0.9,東北東,1.8,東北東,6.7,84.7,0,0,0,24.5,0,0,999.5,1013.7
319,2021-03-22T05:18:00,0.9,東北東,1.8,東北東,6.7,84.7,0,0,0,24.5,0,0,999.5,1013.7
320,2021-03-22T05:19:00,0.8,東北東,1.7,東,6.7,84,0,0,0,24.5,0,0,999.4,1013.6
321,2021-03-22T05:20:00,0.8,北東,1.6,東,6.6,83.5,0,0,0,24.5,0,0,999.4,1013.6
322,2021-03-22T05:21:00,0.7,北東,1.6,東,6.7,83.4,0,0,0,24.5,0,0,999.5,1013.7